Regional Weather Roundup
Issued by NWS

Home | Current Version | Previous Version | Text Only | Print | Product List | Glossary Off
Versions: 1 2 3 4 5 6 7 8 9 10 11 12 13 14 15 16 17 18 19 20 21 22 23 24 25 26 27 28 29 30 31 32 33 34 35 36 37 38 39 40 41 42 43 44 45 46 47 48 49 50

129
ASUS43 KFSD 151102
RWRSD

WEATHER ROUNDUP FOR SOUTH DAKOTA
NATIONAL WEATHER SERVICE SIOUX FALLS SD
500 AM CST FRI DEC 15 2017

NOTE: "FAIR" INDICATES FEW OR NO CLOUDS BELOW 12,000 FEET WITH NO
SIGNIFICANT WEATHER AND/OR OBSTRUCTIONS TO VISIBILITY.


SDZ001>005-009-010-012>017-151200-
NORTHWEST AND NORTH CENTRAL SOUTH DAKOTA

CITY           SKY/WX    TMP DP  RH WIND       PRES   REMARKS
BUFFALO          N/A     29  22  75 W12       29.79F WCI  19
FAITH            N/A     25  21  85 SW8       29.87F WCI  16
MOBRIDGE       CLOUDY    28  22  78 NW3       29.87F
$$

SDZ012>016-024>037-041>051-057-063-072>074-151200-
SOUTHWEST AND SOUTH CENTRAL SOUTH DAKOTA

CITY           SKY/WX    TMP DP  RH WIND       PRES   REMARKS
RAPID CTY ARPT CLOUDY    17  10  74 CALM      29.91F
PIERRE         CLOUDY    27  23  85 SW9       29.93F WCI  18
CUSTER         CLOUDY    29  11  47 W8        29.90F WCI  21
ELLSWORTH AFB  CLOUDY    23  13  65 SW5       29.89F WCI  17
PHILIP         CLOUDY    24  20  84 W10       29.94F WCI  14
PINE RIDGE     CLOUDY    25  19  78 SW8       29.97F WCI  16
SPEARFISH      FAIR      37  16  41 W14       29.87F
WINNER         FAIR      28  22  78 SW8       29.97F WCI  20
$$

SDZ004>011-016>023-039-040-151200-
NORTHEAST SOUTH DAKOTA

CITY           SKY/WX    TMP DP  RH WIND       PRES   REMARKS
ABERDEEN       CLOUDY    32  26  78 W7        29.90F WCI  26
WATERTOWN      CLOUDY    30  27  88 W7        29.88F WCI  23
BROOKINGS      CLOUDY    30  27  88 W10       29.90  WCI  21
SISSETON         N/A     25  23  92 N10       29.91S WCI  15
$$

SDZ017-020-022-023-036>040-048>070-151200-
SOUTHEAST SOUTH DAKOTA

CITY           SKY/WX    TMP DP  RH WIND       PRES   REMARKS
SIOUX FALLS    CLOUDY    32  28  85 W7        29.95F WCI  26
HURON          MOCLDY    32  26  78 W9        29.93F WCI  24
CHAMBERLAIN    PTCLDY    29  26  88 W8        29.96F WCI  21
MITCHELL       CLOUDY    32  26  78 W12       29.98F WCI  23
YANKTON        MOCLDY    34  26  72 SW14      29.99F WCI  25
$$

ABBREVIATIONS USED IN REMARKS
   TC - TEMPERATURE IN CELSIUS
  WCI - WIND CHILL INDEX
   HX - HEAT INDEX
  VSB - VISIBILITY





USA.gov is the U.S. government's official web portal to all federal, state and local government web resources and services.